Location: La Plant
(45.1447°N, 100.6515°W)
Time: 22:14:37
(UTC+00:00)

ISS - Pass Details

Date: 04 December 2020
Orbit: 418 x 419 km, 51.6° (Epoch: 18 January)

Event Time Altitude Azimuth Distance (km) Brightness Sun altitude
Rises 00:05:30 0° 297° (WNW) 2,370 0.7 -11.0°
Reaches altitude 10° 00:07:44 10° 308° (NW) 1,504 -0.5 -11.4°
Maximum altitude 00:10:50 33° 14° (NNE) 737 -2.8 -11.9°
Enters shadow 00:12:28 21° 64° (ENE) 1,013 -2.5 -12.2°
